Location: ?????????
(38.5999°N, 22.7695°E)
Time: 11:21:12
(UTC+00:00)

Cosmos 2333 Rocket - Pass Details

Date: 23 May 2024
Orbit: 838 x 863 km, 70.8° (Epoch: 19 June)

Event Time Altitude Azimuth Distance (km) Brightness Sun altitude
Rises 02:34:52 0° 321° (NW) 3,427 5.3 -6.9°
Reaches altitude 10° 02:37:55 10° 305° (NW) 2,490 4.4 -6.4°
Maximum altitude 02:41:59 20° 260° (W) 1,858 3.5 -5.7°
Drops below altitude 10° 02:46:05 10° 214° (SSW) 2,488 4.1 -5.0°
Sets 02:49:08 0° 198° (SSW) 3,423 4.9 -4.5°
